Location: Bois Neuf
(42.7667°N, 0.6333°E)
Time: 22:29:54
(UTC+00:00)

Cosmos 2181 Rocket - Pass Details

Date: 07 June 2020
Orbit: 952 x 1014 km, 82.9° (Epoch: 08 July)

Event Time Altitude Azimuth Distance (km) Brightness Sun altitude
Rises 01:31:39 0° 347° (NNW) 3,758 7.9 -20.9°
Reaches altitude 10° 01:34:16 10° 342° (NNW) 2,806 7.0 -20.7°
Maximum altitude 01:40:26 49° 270° (W) 1,281 4.4 -20.2°
Enters shadow 01:42:50 34° 218° (SW) 1,606 4.6 -20.0°
